• In Deutschland
  • Länderverzeichnis
  • Für 7 Tage
  • Wassertemperatur
  • Satellitenkarten
  • Wetterkarte
  • Widgets
  • user-avatar
    Anmelden

    Stündliche Wetter Linz

    Heute, 16 August, Mittwoch

    Zeit Temperatur Niederschläge Wind Luftdruck Luftfeuchtigkeit
    00:00 +20°C° 0 mm 1 m/S 736 mmHg 78%
    01:00 +20°C° 0 mm 1 m/S 736 mmHg 79%
    02:00 +20°C° 0 mm 1 m/S 736 mmHg 80%
    03:00 +20°C° 0 mm 1 m/S 736 mmHg 81%
    04:00 +19°C° 0 mm 1 m/S 736 mmHg 82%
    05:00 +20°C° 0,1 mm 1 m/S 737 mmHg 83%
    06:00 +19°C° 0,1 mm 2 m/S 737 mmHg 84%
    07:00 +20°C° 0 mm 3 m/S 738 mmHg 90%
    08:00 +20°C° 0,2 mm 2 m/S 738 mmHg 88%
    09:00 +21°C° 0,2 mm 2 m/S 738 mmHg 87%
    10:00 +21°C° 0,2 mm 2 m/S 738 mmHg 85%
    11:00 +23°C° 0,1 mm 2 m/S 738 mmHg 78%
    12:00 +25°C° 0,1 mm 2 m/S 738 mmHg 70%
    13:00 +26°C° 0,1 mm 2 m/S 738 mmHg 62%
    14:00 +26°C° 0,1 mm 2 m/S 737 mmHg 63%
    15:00 +27°C° 0,1 mm 2 m/S 737 mmHg 63%
    16:00 +27°C° 0,1 mm 2 m/S 737 mmHg 63%
    17:00 +25°C° 0,1 mm 1 m/S 737 mmHg 70%
    18:00 +24°C° 0,1 mm 1 m/S 737 mmHg 77%
    19:00 +20°C° 0,1 mm 0 m/S 737 mmHg 84%
    20:00 +21°C° 0 mm 1 m/S 737 mmHg 86%
    21:00 +20°C° 0 mm 1 m/S 737 mmHg 88%
    22:00 +20°C° 0 mm 1 m/S 738 mmHg 90%
    23:00 +19°C° 0 mm 1 m/S 738 mmHg 91%

    Morgen, 17 August, Donnerstag

    Zeit Temperatur Niederschläge Wind Luftdruck Luftfeuchtigkeit
    00:00 +19°C° 0 mm 1 m/S 738 mmHg 92%
    01:00 +18°C° 0 mm 1 m/S 738 mmHg 93%
    02:00 +18°C° 0 mm 1 m/S 737 mmHg 93%
    03:00 +18°C° 0 mm 1 m/S 737 mmHg 93%
    04:00 +18°C° 0 mm 1 m/S 737 mmHg 93%
    05:00 +19°C° 0 mm 1 m/S 737 mmHg 90%
    06:00 +20°C° 0 mm 1 m/S 737 mmHg 87%
    07:00 +19°C° 0 mm 0 m/S 737 mmHg 84%
    08:00 +23°C° 0 mm 1 m/S 737 mmHg 76%
    09:00 +25°C° 0 mm 1 m/S 737 mmHg 67%
    10:00 +27°C° 0 mm 1 m/S 737 mmHg 59%
    11:00 +28°C° 0 mm 1 m/S 737 mmHg 55%
    12:00 +29°C° 0 mm 1 m/S 737 mmHg 51%
    13:00 +30°C° 0 mm 1 m/S 736 mmHg 48%
    14:00 +30°C° 0 mm 1 m/S 736 mmHg 48%
    15:00 +30°C° 0 mm 1 m/S 736 mmHg 49%
    16:00 +30°C° 0 mm 1 m/S 736 mmHg 50%
    17:00 +28°C° 0 mm 1 m/S 735 mmHg 58%
    18:00 +26°C° 0 mm 1 m/S 735 mmHg 66%
    19:00 +21°C° 0 mm 0 m/S 735 mmHg 74%
    20:00 +23°C° 0 mm 1 m/S 735 mmHg 76%
    21:00 +22°C° 0 mm 1 m/S 736 mmHg 78%
    22:00 +21°C° 0 mm 1 m/S 736 mmHg 79%
    23:00 +21°C° 0 mm 1 m/S 736 mmHg 81%

    übermorgen, 18 August, Freitag

    Zeit Temperatur Niederschläge Wind Luftdruck Luftfeuchtigkeit
    00:00 +20°C° 0 mm 1 m/S 736 mmHg 82%
    01:00 +20°C° 0 mm 1 m/S 736 mmHg 83%
    02:00 +20°C° 0 mm 1 m/S 735 mmHg 83%
    03:00 +20°C° 0 mm 1 m/S 735 mmHg 84%
    04:00 +19°C° 0 mm 1 m/S 735 mmHg 84%
    05:00 +20°C° 0 mm 1 m/S 735 mmHg 82%
    06:00 +21°C° 0 mm 1 m/S 735 mmHg 79%
    07:00 +23°C° 0 mm 1 m/S 736 mmHg 76%
    08:00 +25°C° 0 mm 1 m/S 735 mmHg 69%
    09:00 +27°C° 0 mm 1 m/S 735 mmHg 61%
    10:00 +29°C° 0 mm 1 m/S 735 mmHg 54%
    11:00 +30°C° 0 mm 1 m/S 735 mmHg 51%
    12:00 +31°C° 0 mm 2 m/S 734 mmHg 48%
    13:00 +32°C° 0 mm 2 m/S 734 mmHg 45%
    14:00 +32°C° 0 mm 2 m/S 734 mmHg 45%
    15:00 +34°C° 0 mm 2 m/S 733 mmHg 45%
    16:00 +34°C° 0 mm 2 m/S 733 mmHg 46%
    17:00 +30°C° 0 mm 2 m/S 733 mmHg 53%
    18:00 +28°C° 0 mm 2 m/S 732 mmHg 61%
    19:00 +26°C° 0 mm 1 m/S 732 mmHg 69%
    20:00 +25°C° 0,3 mm 1 m/S 732 mmHg 72%
    21:00 +24°C° 0,3 mm 1 m/S 732 mmHg 75%
    22:00 +23°C° 0,3 mm 1 m/S 733 mmHg 78%
    23:00 +21°C° 0,2 mm 2 m/S 733 mmHg 81%

    19 August, Samstag

    Zeit Temperatur Niederschläge Wind Luftdruck Luftfeuchtigkeit
    00:00 +20°C° 0,2 mm 2 m/S 732 mmHg 84%
    01:00 +20°C° 0,2 mm 2 m/S 732 mmHg 87%
    02:00 +19°C° 0,6 mm 3 m/S 733 mmHg 89%
    03:00 +19°C° 0,6 mm 4 m/S 733 mmHg 91%
    04:00 +18°C° 0,6 mm 4 m/S 734 mmHg 94%
    05:00 +18°C° 0,7 mm 4 m/S 734 mmHg 94%
    06:00 +18°C° 0,7 mm 3 m/S 735 mmHg 94%
    07:00 +17°C° 0,7 mm 3 m/S 735 mmHg 95%
    08:00 +17°C° 0,9 mm 2 m/S 735 mmHg 94%
    09:00 +17°C° 0,9 mm 2 m/S 736 mmHg 94%
    10:00 +17°C° 0,9 mm 2 m/S 736 mmHg 94%
    11:00 +17°C° 1,6 mm 2 m/S 736 mmHg 94%
    12:00 +18°C° 1,6 mm 1 m/S 736 mmHg 93%
    13:00 +18°C° 1,6 mm 1 m/S 736 mmHg 92%
    14:00 +19°C° 0,9 mm 1 m/S 736 mmHg 90%
    15:00 +19°C° 0,9 mm 1 m/S 736 mmHg 88%
    16:00 +20°C° 0,9 mm 1 m/S 736 mmHg 85%
    17:00 +19°C° 0,3 mm 1 m/S 736 mmHg 88%
    18:00 +18°C° 0,3 mm 1 m/S 736 mmHg 90%
    19:00 +18°C° 0,3 mm 1 m/S 737 mmHg 92%
    20:00 +16°C° 0,8 mm 1 m/S 737 mmHg 93%
    21:00 +16°C° 0,8 mm 1 m/S 737 mmHg 94%
    22:00 +15°C° 0,8 mm 1 m/S 738 mmHg 95%
    23:00 +15°C° 0,6 mm 1 m/S 738 mmHg 95%

    20 August, Sonntag

    Zeit Temperatur Niederschläge Wind Luftdruck Luftfeuchtigkeit
    00:00 +15°C° 0,6 mm 2 m/S 738 mmHg 94%
    01:00 +15°C° 0,6 mm 2 m/S 738 mmHg 94%
    02:00 +14°C° 0,1 mm 2 m/S 738 mmHg 94%
    03:00 +14°C° 0,1 mm 2 m/S 738 mmHg 95%
    04:00 +14°C° 0,1 mm 2 m/S 738 mmHg 95%
    05:00 +14°C° 0 mm 2 m/S 738 mmHg 94%
    06:00 +14°C° 0 mm 2 m/S 739 mmHg 92%
    07:00 +14°C° 0 mm 2 m/S 739 mmHg 91%
    08:00 +16°C° 0,1 mm 3 m/S 739 mmHg 85%
    09:00 +17°C° 0,1 mm 3 m/S 739 mmHg 79%
    10:00 +18°C° 0,1 mm 3 m/S 739 mmHg 73%
    11:00 +19°C° 0,3 mm 3 m/S 739 mmHg 71%
    12:00 +19°C° 0,3 mm 3 m/S 739 mmHg 69%
    13:00 +20°C° 0,3 mm 3 m/S 739 mmHg 67%
    14:00 +20°C° 0,2 mm 3 m/S 739 mmHg 66%
    15:00 +20°C° 0,2 mm 3 m/S 739 mmHg 65%
    16:00 +20°C° 0,2 mm 3 m/S 739 mmHg 64%
    17:00 +19°C° 0,1 mm 2 m/S 739 mmHg 70%
    18:00 +17°C° 0,1 mm 2 m/S 739 mmHg 77%
    19:00 +16°C° 0,1 mm 2 m/S 739 mmHg 84%
    20:00 +15°C° 0,1 mm 1 m/S 739 mmHg 86%
    21:00 +14°C° 0,1 mm 1 m/S 740 mmHg 88%
    22:00 +13°C° 0,1 mm 1 m/S 740 mmHg 90%
    23:00 +13°C° 0 mm 1 m/S 740 mmHg 90%

    21 August, Montag

    Zeit Temperatur Niederschläge Wind Luftdruck Luftfeuchtigkeit
    00:00 +13°C° 0 mm 1 m/S 740 mmHg 91%
    01:00 +12°C° 0 mm 1 m/S 740 mmHg 91%
    02:00 +12°C° 0 mm 1 m/S 740 mmHg 91%
    03:00 +12°C° 0 mm 1 m/S 740 mmHg 92%
    04:00 +11°C° 0 mm 1 m/S 739 mmHg 92%
    05:00 +12°C° 0 mm 1 m/S 739 mmHg 90%
    06:00 +13°C° 0 mm 1 m/S 739 mmHg 88%
    07:00 +14°C° 0 mm 1 m/S 739 mmHg 86%
    08:00 +16°C° 0 mm 1 m/S 739 mmHg 77%
    09:00 +20°C° 0 mm 1 m/S 739 mmHg 67%
    10:00 +22°C° 0 mm 1 m/S 739 mmHg 58%
    11:00 +23°C° 0 mm 1 m/S 738 mmHg 54%
    12:00 +24°C° 0 mm 1 m/S 738 mmHg 50%
    13:00 +24°C° 0 mm 1 m/S 738 mmHg 46%
    14:00 +24°C° 0 mm 1 m/S 737 mmHg 47%
    15:00 +24°C° 0 mm 1 m/S 737 mmHg 47%
    16:00 +24°C° 0 mm 1 m/S 737 mmHg 48%
    17:00 +22°C° 0 mm 1 m/S 737 mmHg 56%
    18:00 +20°C° 0 mm 1 m/S 737 mmHg 65%
    19:00 +16°C° 0 mm 0 m/S 736 mmHg 74%
    20:00 +16°C° 0 mm 1 m/S 737 mmHg 75%
    21:00 +16°C° 0 mm 1 m/S 737 mmHg 76%
    22:00 +15°C° 0 mm 1 m/S 737 mmHg 77%
    23:00 +15°C° 0 mm 1 m/S 736 mmHg 76%
    Mehr zeigen